SR1WXZ Weather Reports


time (UTC)temp
F
wind
direction
speed
knots
gust
knots
rain 1hr
in
rain 24hr
in
rain mn
in
humidity
%
barometer
mb
20260507194842 48 350 4.3 0.0 0.00 0.00 0.00 65 1018.0
20260507194546 48 350 4.3 0.0 0.00 0.00 0.00 65 1018.0
20260507193044 48 350 5.2 0.0 0.00 0.00 0.00 65 1017.0
20260507192840 48 350 5.2 0.0 0.00 0.00 0.00 65 1017.0
20260507191547 48 350 5.2 0.0 0.00 0.00 0.00 65 1017.0
20260507190839 50 360 6.1 0.0 0.00 0.00 0.00 61 1017.0
20260507190044 50 360 6.1 0.0 0.00 0.00 0.00 61 1017.0
20260507184842 50 360 6.1 0.0 0.00 0.00 0.00 61 1017.0
20260507184545 50 360 6.1 0.0 0.00 0.00 0.00 61 1017.0
20260507183044 50 350 5.2 0.0 0.00 0.00 0.00 61 1017.0
20260507182841 50 350 5.2 0.0 0.00 0.00 0.00 61 1017.0
20260507181546 50 350 5.2 0.0 0.00 0.00 0.00 61 1017.0
20260507180839 50 10 5.2 0.0 0.00 0.00 0.00 57 1017.0
20260507180045 50 10 5.2 0.0 0.00 0.00 0.00 57 1017.0
20260507174843 50 10 5.2 0.0 0.00 0.00 0.00 57 1017.0
20260507174546 50 10 5.2 0.0 0.00 0.00 0.00 57 1017.0
20260507173045 50 10 6.1 0.0 0.00 0.00 0.00 57 1016.0
20260507172841 50 10 6.1 0.0 0.00 0.00 0.00 57 1016.0
20260507171547 50 10 6.1 0.0 0.00 0.00 0.00 57 1016.0
20260507170839 50 360 6.1 0.0 0.00 0.00 0.00 61 1016.0
20260507170044 50 360 6.1 0.0 0.00 0.00 0.00 61 1016.0
20260507164842 50 360 6.1 0.0 0.00 0.00 0.00 61 1016.0
20260507164546 50 360 6.1 0.0 0.00 0.00 0.00 61 1016.0
20260507163044 50 360 7.8 0.0 0.00 0.00 0.00 57 1016.0
20260507162840 50 360 7.8 0.0 0.00 0.00 0.00 57 1016.0
20260507161546 50 360 7.8 0.0 0.00 0.00 0.00 57 1016.0
20260507160839 52 360 7.0 0.0 0.00 0.00 0.00 57 1016.0
20260507160044 52 360 7.0 0.0 0.00 0.00 0.00 57 1016.0
20260507154842 52 360 7.0 0.0 0.00 0.00 0.00 57 1016.0
20260507154545 52 360 7.0 0.0 0.00 0.00 0.00 57 1016.0
20260507153044 52 360 7.8 0.0 0.00 0.00 0.00 57 1016.0
20260507152840 52 360 7.8 0.0 0.00 0.00 0.00 57 1016.0
20260507151547 52 360 7.8 0.0 0.00 0.00 0.00 57 1016.0
20260507150839 52 10 8.7 0.0 0.00 0.00 0.00 57 1016.0
20260507150044 52 10 8.7 0.0 0.00 0.00 0.00 57 1016.0
20260507144848 52 10 8.7 0.0 0.00 0.00 0.00 57 1016.0
20260507144545 52 10 8.7 0.0 0.00 0.00 0.00 57 1016.0
20260507143043 52 20 7.8 0.0 0.00 0.00 0.00 61 1016.0
20260507142846 52 20 7.8 0.0 0.00 0.00 0.00 61 1016.0
20260507141548 52 20 7.8 0.0 0.00 0.00 0.00 61 1016.0
20260507140844 52 360 7.0 0.0 0.00 0.00 0.00 61 1016.0
20260507140044 52 360 7.0 0.0 0.00 0.00 0.00 61 1016.0
20260507134842 52 360 7.0 0.0 0.00 0.00 0.00 61 1016.0
20260507134545 52 360 7.0 0.0 0.00 0.00 0.00 61 1016.0
20260507133044 52 10 10.4 0.0 0.00 0.00 0.00 57 1015.0
20260507132840 52 10 10.4 0.0 0.00 0.00 0.00 57 1015.0
20260507131546 52 10 10.4 0.0 0.00 0.00 0.00 57 1015.0
20260507130839 52 10 8.7 0.0 0.00 0.00 0.00 61 1015.0
20260507130044 52 10 8.7 0.0 0.00 0.00 0.00 61 1015.0
20260507124842 52 10 8.7 0.0 0.00 0.00 0.00 61 1015.0
20260507124545 52 10 8.7 0.0 0.00 0.00 0.00 61 1015.0
20260507123044 52 30 7.0 0.0 0.00 0.00 0.00 57 1015.0
20260507122840 52 30 7.0 0.0 0.00 0.00 0.00 57 1015.0
20260507121547 52 30 7.0 0.0 0.00 0.00 0.00 57 1015.0
20260507120838 52 10 8.7 0.0 0.00 0.00 0.00 57 1015.0
20260507120045 52 10 8.7 0.0 0.00 0.00 0.00 57 1015.0
20260507114841 52 10 8.7 0.0 0.00 0.00 0.00 57 1015.0
20260507114545 52 10 8.7 0.0 0.00 0.00 0.00 57 1015.0
20260507113043 52 60 8.7 0.0 0.00 0.00 0.00 61 1015.0
20260507112840 52 60 8.7 0.0 0.00 0.00 0.00 61 1015.0
20260507111546 52 60 8.7 0.0 0.00 0.00 0.00 61 1015.0
20260507110838 52 20 10.4 0.0 0.00 0.00 0.00 57 1014.0
20260507110043 52 20 10.4 0.0 0.00 0.00 0.00 57 1014.0
20260507104842 52 20 10.4 0.0 0.00 0.00 0.00 57 1014.0
20260507104545 52 20 10.4 0.0 0.00 0.00 0.00 57 1014.0
20260507103044 52 10 10.4 0.0 0.00 0.00 0.00 61 1014.0
20260507102840 52 10 10.4 0.0 0.00 0.00 0.00 61 1014.0
20260507101546 52 10 10.4 0.0 0.00 0.00 0.00 61 1014.0
20260507100838 50 10 10.4 0.0 0.00 0.00 0.00 61 1014.0
20260507100044 50 10 10.4 0.0 0.00 0.00 0.00 61 1014.0
20260507094842 50 10 10.4 0.0 0.00 0.00 0.00 61 1014.0
20260507094550 50 10 10.4 0.0 0.00 0.00 0.00 61 1014.0
20260507093043 50 20 10.4 0.0 0.00 0.00 0.00 66 1014.0
20260507092840 50 20 10.4 0.0 0.00 0.00 0.00 66 1014.0
20260507091546 50 20 10.4 0.0 0.00 0.00 0.00 66 1014.0
20260507090839 50 10 8.7 0.0 0.00 0.00 0.00 70 1014.0
20260507090044 50 10 8.7 0.0 0.00 0.00 0.00 70 1014.0
20260507084842 50 10 8.7 0.0 0.00 0.00 0.00 70 1014.0
20260507084545 50 10 8.7 0.0 0.00 0.00 0.00 70 1014.0
20260507083044 48 30 7.8 0.0 0.00 0.00 0.00 75 1014.0
20260507082840 48 30 7.8 0.0 0.00 0.00 0.00 75 1014.0
20260507081546 48 30 7.8 0.0 0.00 0.00 0.00 75 1014.0
20260507080839 48 30 7.8 0.0 0.00 0.00 0.00 75 1013.0
20260507080044 48 30 7.8 0.0 0.00 0.00 0.00 75 1013.0
20260507074843 48 30 7.8 0.0 0.00 0.00 0.00 75 1013.0
20260507074545 48 30 7.8 0.0 0.00 0.00 0.00 75 1013.0
20260507073043 46 10 8.7 0.0 0.00 0.00 0.00 81 1013.0
20260507072841 46 10 8.7 0.0 0.00 0.00 0.00 81 1013.0
20260507071546 46 10 8.7 0.0 0.00 0.00 0.00 81 1013.0
20260507070839 46 20 6.1 0.0 0.00 0.00 0.00 81 1013.0
20260507070044 46 20 6.1 0.0 0.00 0.00 0.00 81 1013.0
20260507064843 46 20 6.1 0.0 0.00 0.00 0.00 81 1013.0
20260507064544 46 20 6.1 0.0 0.00 0.00 0.00 81 1013.0
20260507063043 46 10 7.0 0.0 0.00 0.00 0.00 81 1013.0
20260507062841 46 10 7.0 0.0 0.00 0.00 0.00 81 1013.0
20260507061545 46 10 7.0 0.0 0.00 0.00 0.00 81 1013.0
20260507060839 46 10 5.2 0.0 0.00 0.00 0.00 81 1012.0
20260507060044 46 10 5.2 0.0 0.00 0.00 0.00 81 1012.0
20260507054842 46 10 5.2 0.0 0.00 0.00 0.00 81 1012.0
20260507054545 46 10 5.2 0.0 0.00 0.00 0.00 81 1012.0
20260507053043 46 10 6.1 0.0 0.00 0.00 0.00 81 1012.0
20260507052841 46 10 6.1 0.0 0.00 0.00 0.00 81 1012.0
20260507051545 46 10 6.1 0.0 0.00 0.00 0.00 81 1012.0
20260507050839 45 10 6.1 0.0 0.00 0.00 0.00 86 1012.0
20260507050044 45 10 6.1 0.0 0.00 0.00 0.00 86 1012.0
20260507044842 45 10 6.1 0.0 0.00 0.00 0.00 86 1012.0
20260507044544 45 10 6.1 0.0 0.00 0.00 0.00 86 1012.0
20260507043043 46 20 5.2 0.0 0.00 0.00 0.00 87 1011.0
20260507042841 46 20 5.2 0.0 0.00 0.00 0.00 87 1011.0
20260507041546 46 20 5.2 0.0 0.00 0.00 0.00 87 1011.0
20260507040839 46 30 6.1 0.0 0.00 0.00 0.00 87 1011.0
20260507040045 46 30 6.1 0.0 0.00 0.00 0.00 87 1011.0
20260507034842 46 30 6.1 0.0 0.00 0.00 0.00 87 1011.0
20260507034544 46 30 6.1 0.0 0.00 0.00 0.00 87 1011.0
20260507033044 46 20 6.1 0.0 0.00 0.00 0.00 87 1011.0
20260507032841 46 20 6.1 0.0 0.00 0.00 0.00 87 1011.0
20260507031547 46 20 6.1 0.0 0.00 0.00 0.00 87 1011.0
20260507030839 46 30 6.1 0.0 0.00 0.00 0.00 81 1011.0
20260507030043 46 30 6.1 0.0 0.00 0.00 0.00 81 1011.0
20260507024842 46 30 6.1 0.0 0.00 0.00 0.00 81 1011.0
20260507024544 46 30 6.1 0.0 0.00 0.00 0.00 81 1011.0
20260507023043 46 30 6.1 0.0 0.00 0.00 0.00 87 1011.0
20260507022840 46 30 6.1 0.0 0.00 0.00 0.00 87 1011.0
20260507021546 46 30 6.1 0.0 0.00 0.00 0.00 87 1011.0
20260507020839 46 40 5.2 0.0 0.00 0.00 0.00 87 1011.0
20260507020044 46 40 5.2 0.0 0.00 0.00 0.00 87 1011.0
20260507014842 46 40 5.2 0.0 0.00 0.00 0.00 87 1011.0
20260507014545 46 40 5.2 0.0 0.00 0.00 0.00 87 1011.0
20260507013043 46 30 6.1 0.0 0.00 0.00 0.00 87 1010.0
20260507012840 46 30 6.1 0.0 0.00 0.00 0.00 87 1010.0
20260507011545 46 30 6.1 0.0 0.00 0.00 0.00 87 1010.0
20260507010839 46 30 6.1 0.0 0.00 0.00 0.00 87 1010.0
20260507010044 46 30 6.1 0.0 0.00 0.00 0.00 87 1010.0
20260507004841 46 30 6.1 0.0 0.00 0.00 0.00 87 1010.0
20260507004544 46 30 6.1 0.0 0.00 0.00 0.00 87 1010.0
20260507003043 45 10 5.2 0.0 0.00 0.00 0.00 93 1010.0
20260507002839 45 10 5.2 0.0 0.00 0.00 0.00 93 1010.0
20260507001546 45 10 5.2 0.0 0.00 0.00 0.00 93 1010.0
20260507000838 46 40 4.3 0.0 0.00 0.00 0.00 87 1010.0
20260507000043 46 40 4.3 0.0 0.00 0.00 0.00 87 1010.0
20260506234842 46 40 4.3 0.0 0.00 0.00 0.00 87 1010.0
20260506234550 46 40 4.3 0.0 0.00 0.00 0.00 87 1010.0
20260506233043 46 20 6.1 0.0 0.00 0.00 0.00 87 1010.0
20260506232840 46 20 6.1 0.0 0.00 0.00 0.00 87 1010.0
20260506231546 46 20 6.1 0.0 0.00 0.00 0.00 87 1010.0
20260506230839 46 20 5.2 0.0 0.00 0.00 0.00 87 1010.0
20260506230043 46 20 5.2 0.0 0.00 0.00 0.00 87 1010.0
20260506224843 46 20 5.2 0.0 0.00 0.00 0.00 87 1010.0
20260506224544 46 20 5.2 0.0 0.00 0.00 0.00 87 1010.0
20260506223042 46 20 6.1 0.0 0.00 0.00 0.00 87 1010.0
20260506222841 46 20 6.1 0.0 0.00 0.00 0.00 87 1010.0
20260506221556 46 20 6.1 0.0 0.00 0.00 0.00 87 1010.0
20260506220840 46 20 7.0 0.0 0.00 0.00 0.00 87 1010.0
20260506220043 46 20 7.0 0.0 0.00 0.00 0.00 87 1010.0
20260506214848 46 20 7.0 0.0 0.00 0.00 0.00 87 1010.0
20260506214544 46 20 7.0 0.0 0.00 0.00 0.00 87 1010.0
20260506213042 46 360 6.1 0.0 0.00 0.00 0.00 87 1010.0
20260506212846 46 360 6.1 0.0 0.00 0.00 0.00 87 1010.0
20260506211545 46 360 6.1 0.0 0.00 0.00 0.00 87 1010.0
20260506210845 46 20 5.2 0.0 0.00 0.00 0.00 87 1009.0
20260506210044 46 20 5.2 0.0 0.00 0.00 0.00 87 1009.0
20260506204840 46 20 5.2 0.0 0.00 0.00 0.00 87 1009.0
20260506204544 46 20 5.2 0.0 0.00 0.00 0.00 87 1009.0
20260506203043 45 360 6.1 0.0 0.00 0.00 0.00 93 1009.0
20260506202839 45 360 6.1 0.0 0.00 0.00 0.00 93 1009.0
20260506201545 45 360 6.1 0.0 0.00 0.00 0.00 93 1009.0
20260506200837 46 360 6.1 0.0 0.00 0.00 0.00 87 1009.0
20260506200043 46 360 6.1 0.0 0.00 0.00 0.00 87 1009.0